When you browse on this site, cookies collect data to enhance your experience and personalize the content and advertising you see.
Visit our Privacy Policy to learn more. By continuing to use the site, you agree to this use of cookies and data.
  • In Austria
  • List of Countries
  • For 7 days
  • Water Temperature
  • Satellite Maps
  • Weather Map
  • News
  • Weather Widgets
  • user-avatar
    Login

    Hourly Weather Nouakchott

    Today, 12 December, Wednesday

    Time Temperature Precipitation Wind Pressure Humidity
    00:00 +22°C° 0 mm 5 mps 761 mmHg 16%
    01:00 +22°C° 0 mm 5 mps 761 mmHg 16%
    02:00 +21°C° 0 mm 5 mps 761 mmHg 17%
    03:00 +21°C° 0 mm 5 mps 761 mmHg 17%
    04:00 +20°C° 0 mm 5 mps 761 mmHg 17%
    05:00 +20°C° 0 mm 5 mps 761 mmHg 17%
    06:00 +20°C° 0 mm 6 mps 761 mmHg 17%
    07:00 +21°C° 0 mm 6 mps 761 mmHg 17%
    08:00 +21°C° 0 mm 6 mps 762 mmHg 17%
    09:00 +24°C° 0 mm 6 mps 762 mmHg 15%
    10:00 +27°C° 0 mm 6 mps 762 mmHg 12%
    11:00 +30°C° 0 mm 6 mps 762 mmHg 10%
    12:00 +32°C° 0 mm 6 mps 761 mmHg 9%
    13:00 +33°C° 0 mm 5 mps 761 mmHg 8%
    14:00 +34°C° 0 mm 4 mps 760 mmHg 7%
    15:00 +33°C° 0 mm 4 mps 760 mmHg 7%
    16:00 +32°C° 0 mm 4 mps 760 mmHg 8%
    17:00 +30°C° 0 mm 4 mps 760 mmHg 9%
    18:00 +29°C° 0 mm 4 mps 760 mmHg 10%
    19:00 +28°C° 0 mm 5 mps 761 mmHg 11%
    20:00 +27°C° 0 mm 5 mps 761 mmHg 12%
    21:00 +26°C° 0 mm 5 mps 761 mmHg 13%
    22:00 +26°C° 0 mm 6 mps 761 mmHg 14%
    23:00 +24°C° 0 mm 6 mps 761 mmHg 14%

    Tomorrow, 13 December, Thursday

    Time Temperature Precipitation Wind Pressure Humidity
    00:00 +23°C° 0 mm 6 mps 761 mmHg 14%
    01:00 +23°C° 0 mm 6 mps 761 mmHg 14%
    02:00 +22°C° 0 mm 7 mps 761 mmHg 14%
    03:00 +22°C° 0 mm 7 mps 761 mmHg 15%
    04:00 +22°C° 0 mm 7 mps 761 mmHg 15%
    05:00 +21°C° 0 mm 7 mps 761 mmHg 16%
    06:00 +22°C° 0 mm 7 mps 762 mmHg 16%
    07:00 +22°C° 0 mm 7 mps 762 mmHg 15%
    08:00 +23°C° 0 mm 8 mps 763 mmHg 15%
    09:00 +26°C° 0 mm 8 mps 763 mmHg 13%
    10:00 +28°C° 0 mm 8 mps 763 mmHg 11%
    11:00 +32°C° 0 mm 8 mps 763 mmHg 10%
    12:00 +33°C° 0 mm 8 mps 762 mmHg 9%
    13:00 +34°C° 0 mm 7 mps 762 mmHg 8%
    14:00 +35°C° 0 mm 7 mps 761 mmHg 7%
    15:00 +34°C° 0 mm 7 mps 761 mmHg 8%
    16:00 +34°C° 0 mm 6 mps 761 mmHg 8%
    17:00 +33°C° 0 mm 6 mps 761 mmHg 9%
    18:00 +30°C° 0 mm 6 mps 761 mmHg 10%
    19:00 +29°C° 0 mm 6 mps 762 mmHg 11%
    20:00 +28°C° 0 mm 6 mps 762 mmHg 12%
    21:00 +28°C° 0 mm 6 mps 762 mmHg 12%
    22:00 +27°C° 0 mm 6 mps 762 mmHg 12%
    23:00 +27°C° 0 mm 6 mps 763 mmHg 13%

    Day after tomorrow, 14 December, Friday

    Time Temperature Precipitation Wind Pressure Humidity
    00:00 +27°C° 0 mm 7 mps 762 mmHg 13%
    01:00 +26°C° 0 mm 7 mps 762 mmHg 13%
    02:00 +26°C° 0 mm 8 mps 762 mmHg 13%
    03:00 +24°C° 0 mm 8 mps 762 mmHg 14%
    04:00 +24°C° 0 mm 8 mps 762 mmHg 14%
    05:00 +24°C° 0 mm 8 mps 762 mmHg 15%
    06:00 +24°C° 0 mm 8 mps 762 mmHg 14%
    07:00 +24°C° 0 mm 8 mps 763 mmHg 14%
    08:00 +26°C° 0 mm 9 mps 764 mmHg 14%
    09:00 +28°C° 0 mm 8 mps 764 mmHg 12%
    10:00 +31°C° 0 mm 8 mps 764 mmHg 10%
    11:00 +33°C° 0 mm 8 mps 764 mmHg 9%
    12:00 +33°C° 0 mm 7 mps 763 mmHg 9%
    13:00 +34°C° 0 mm 7 mps 763 mmHg 8%
    14:00 +34°C° 0 mm 6 mps 762 mmHg 8%
    15:00 +33°C° 0 mm 5 mps 762 mmHg 9%
    16:00 +32°C° 0 mm 4 mps 762 mmHg 9%
    17:00 +32°C° 0 mm 4 mps 762 mmHg 9%
    18:00 +30°C° 0 mm 3 mps 763 mmHg 10%
    19:00 +30°C° 0 mm 3 mps 764 mmHg 11%
    20:00 +29°C° 0 mm 2 mps 764 mmHg 11%
    21:00 +29°C° 0 mm 3 mps 764 mmHg 12%
    22:00 +29°C° 0 mm 4 mps 764 mmHg 12%
    23:00 +28°C° 0 mm 4 mps 764 mmHg 13%

    15 December, Saturday

    Time Temperature Precipitation Wind Pressure Humidity
    00:00 +27°C° 0 mm 4 mps 764 mmHg 14%
    01:00 +27°C° 0 mm 5 mps 764 mmHg 16%
    02:00 +26°C° 0 mm 5 mps 763 mmHg 18%
    03:00 +25°C° 0 mm 5 mps 763 mmHg 17%
    04:00 +25°C° 0 mm 5 mps 763 mmHg 16%
    05:00 +23°C° 0 mm 5 mps 763 mmHg 15%
    06:00 +25°C° 0 mm 5 mps 764 mmHg 15%
    07:00 +25°C° 0 mm 5 mps 764 mmHg 15%
    08:00 +25°C° 0 mm 5 mps 765 mmHg 15%
    09:00 +27°C° 0 mm 6 mps 765 mmHg 13%
    10:00 +29°C° 0 mm 6 mps 765 mmHg 11%
    11:00 +30°C° 0 mm 7 mps 765 mmHg 10%
    12:00 +33°C° 0 mm 6 mps 764 mmHg 9%
    13:00 +34°C° 0 mm 5 mps 763 mmHg 9%
    14:00 +35°C° 0 mm 5 mps 762 mmHg 8%
    15:00 +34°C° 0 mm 4 mps 762 mmHg 9%
    16:00 +33°C° 0 mm 4 mps 762 mmHg 9%
    17:00 +32°C° 0 mm 4 mps 763 mmHg 10%
    18:00 +30°C° 0 mm 4 mps 763 mmHg 11%
    19:00 +29°C° 0 mm 4 mps 764 mmHg 11%
    20:00 +28°C° 0 mm 4 mps 764 mmHg 12%
    21:00 +28°C° 0 mm 4 mps 764 mmHg 13%
    22:00 +27°C° 0 mm 4 mps 764 mmHg 14%
    23:00 +26°C° 0 mm 5 mps 764 mmHg 14%

    16 December, Sunday

    Time Temperature Precipitation Wind Pressure Humidity
    00:00 +25°C° 0 mm 4 mps 763 mmHg 16%
    01:00 +25°C° 0 mm 4 mps 763 mmHg 17%
    02:00 +23°C° 0 mm 4 mps 763 mmHg 18%
    03:00 +23°C° 0 mm 4 mps 763 mmHg 19%
    04:00 +22°C° 0 mm 4 mps 763 mmHg 21%
    05:00 +22°C° 0 mm 4 mps 763 mmHg 22%
    06:00 +22°C° 0 mm 4 mps 763 mmHg 20%
    07:00 +23°C° 0 mm 4 mps 763 mmHg 19%
    08:00 +24°C° 0 mm 3 mps 764 mmHg 17%
    09:00 +26°C° 0 mm 3 mps 764 mmHg 14%
    10:00 +28°C° 0 mm 4 mps 764 mmHg 12%
    11:00 +32°C° 0 mm 4 mps 764 mmHg 9%
    12:00 +32°C° 0 mm 4 mps 763 mmHg 8%
    13:00 +33°C° 0 mm 4 mps 762 mmHg 8%
    14:00 +34°C° 0 mm 4 mps 762 mmHg 8%
    15:00 +33°C° 0 mm 4 mps 762 mmHg 9%
    16:00 +32°C° 0 mm 5 mps 762 mmHg 11%
    17:00 +30°C° 0 mm 5 mps 762 mmHg 13%
    18:00 +28°C° 0 mm 5 mps 762 mmHg 15%
    19:00 +27°C° 0 mm 5 mps 763 mmHg 17%
    20:00 +26°C° 0 mm 5 mps 763 mmHg 20%
    21:00 +25°C° 0 mm 5 mps 763 mmHg 20%
    22:00 +25°C° 0 mm 5 mps 763 mmHg 21%
    23:00 +25°C° 0 mm 5 mps 763 mmHg 22%

    17 December, Monday

    Time Temperature Precipitation Wind Pressure Humidity
    00:00 +23°C° 0 mm 5 mps 763 mmHg 21%
    01:00 +23°C° 0 mm 5 mps 762 mmHg 21%
    02:00 +22°C° 0 mm 5 mps 762 mmHg 20%
    03:00 +22°C° 0 mm 5 mps 762 mmHg 20%
    04:00 +22°C° 0 mm 5 mps 762 mmHg 21%
    05:00 +21°C° 0 mm 5 mps 762 mmHg 21%
    06:00 +22°C° 0 mm 5 mps 762 mmHg 22%
    07:00 +22°C° 0 mm 5 mps 762 mmHg 23%
    08:00 +23°C° 0 mm 5 mps 763 mmHg 24%
    09:00 +26°C° 0 mm 5 mps 763 mmHg 22%
    10:00 +29°C° 0 mm 6 mps 763 mmHg 19%
    11:00 +32°C° 0 mm 6 mps 762 mmHg 16%
    12:00 +33°C° 0 mm 5 mps 762 mmHg 16%
    13:00 +34°C° 0 mm 5 mps 761 mmHg 15%
    14:00 +34°C° 0 mm 5 mps 760 mmHg 14%
    15:00 +34°C° 0 mm 5 mps 761 mmHg 15%
    16:00 +33°C° 0 mm 4 mps 761 mmHg 15%
    17:00 +32°C° 0 mm 4 mps 761 mmHg 16%
    18:00 +30°C° 0 mm 4 mps 761 mmHg 17%
    19:00 +28°C° 0 mm 4 mps 762 mmHg 17%
    20:00 +27°C° 0 mm 4 mps 763 mmHg 18%
    21:00 +27°C° 0 mm 5 mps 763 mmHg 18%
    22:00 +26°C° 0 mm 5 mps 763 mmHg 18%
    23:00 +25°C° 0 mm 5 mps 763 mmHg 18%
    Show more